Regional Weather Roundup
Issued by NWS Cleveland, OH

Home | Current Version | Previous Version | Text Only | Print | Product List | Glossary Off
Versions: 1 2 3 4 5 6 7 8 9 10 11 12 13 14 15 16 17 18 19 20 21 22 23 24 25 26 27 28 29 30 31 32 33 34 35 36 37 38 39 40 41 42 43 44 45 46 47 48 49 50

000
ASUS41 KCLE 010610
RWRCLE
OHIO REGIONAL WEATHER ROUNDUP
NATIONAL WEATHER SERVICE CLEVELAND, OH
100 AM EST SUN FEB 01 2015

NOTE: "FAIR" INDICATES FEW OR NO CLOUDS BELOW 12,000 FEET WITH NO
SIGNIFICANT WEATHER AND/OR OBSTRUCTIONS TO VISIBILITY.

OHZ001>008-015>018-024>027-034-035-043-044-010700-
   NORTHWEST OHIO

CITY           SKY/WX    TMP DP  RH WIND       PRES   REMARKS
DEFIANCE       LGT SNOW  33  31  92 CALM      30.18S VSB 1
FINDLAY        LGT SNOW  33  29  85 W7        30.17S FOG     WCI  27
TOLEDO EXPRESS LGT SNOW  30  29  96 SW3       30.17S FOG
TOLEDO EXEC    LGT SNOW  32  28  85 SW6       30.18S FOG     WCI  26
LIMA           LGT SNOW  34  31  88 SW8       30.17S FOG     WCI  27
$$

OHZ009>014-019>023-028>033-038-089-010700-
   NORTHEAST OHIO

CITY           SKY/WX    TMP DP  RH WIND       PRES   REMARKS
CLE-HOPKINS    CLOUDY    30  21  69 S6        30.19F WCI  24
CLE-LAKEFRONT  CLOUDY    32  22  66 SW10      30.17F WCI  24
CUY CO. ARPT   NOT AVBL
LORAIN-ELYRIA  CLOUDY    30  22  72 S5        30.17F WCI  25
ASHTABULA      CLOUDY    27  19  72 S6        30.17F WCI  20
AKRON-CANTON   CLOUDY    28  20  71 SW6       30.16F WCI  22
WOOSTER        CLOUDY    28  21  75 S5        30.17F WCI  23
MANSFIELD      CLOUDY    32  22  66 SW8       30.15F WCI  25
YOUNGSTOWN     CLOUDY    28  19  69 SW6       30.16F WCI  22
$$

OHZ042-051>053-060>062-070>072-077>081-010700-
  SOUTHWEST OHIO

CITY           SKY/WX    TMP DP  RH WIND       PRES   REMARKS
CINC-COVINGTON CLOUDY    33  30  88 CALM      30.20F
CINC-LUNKEN    CLOUDY    31  31 100 CALM      30.23F
HAMILTON       CLOUDY    33  32  96 CALM      30.21F FOG
DAYTON         LGTSLEET  33  31  92 SW9       30.20S FOG     WCI  25
WRIGHT-PAT AFB LGTSLEET  33  31  93 SW6       30.20F WCI  27
DAYTON GENERAL LGT RAIN  33  30  88 CALM      30.20F FOG
WILMINGTON     MIX PCPN  32  27  81 SW7       30.20S WCI  26
$$

OHZ036-037-039>041-045>050-054>059-063>069-073>076-082>088-010700-
  CENTRAL AND SOUTHEAST OHIO

CITY           SKY/WX    TMP DP  RH WIND       PRES   REMARKS
COLUMBUS       LGT SNOW  30  27  86 S3        30.20F FOG
OSU AIRPORT    LGT SNOW  32  28  85 SW5       30.19F FOG     WCI  27
BOLTON FIELD   MIX PCPN  32  31  95 MISG      30.20F
RICKENBACK AFB LGT SNOW  32  28  85 S7        30.21S WCI  25
NEWARK         LGT SNOW  32  26  78 SW7       30.20S WCI  26
MARION         LGT SNOW  30  27  88 SW8       30.18S FOG     WCI  22
LANCASTER      MIX PCPN  33  27  78 SW6       30.21F WCI  28
ZANESVILLE     FLURRIES  30  19  63 S8        30.20F WCI  22
NEW PHILLY     CLOUDY    28  18  66 SE5       30.20F WCI  23
$$



USA.gov is the U.S. government's official web portal to all federal, state and local government web resources and services.